Flood From: 22-02-2018 06:00 Until: 23-02-2018 06:00 warning for: Flood Level: Yellow info button

Although rather usual in this region, locally or potentially dangerous phenomena are expected. (such as local winds, summer thunderstorms, rising streams or high waves) Be aware and pay attention to the latest weather updates, especially if you carry out activities exposed to weather or close to a stream or shoreline. 


Meteo18 Weather Cam more information Meteo18 Weather Cam


Thunder radar more information blitzortung!


Rain radar more information rain snow radar


Visit our other weather sites:

Template documentation
and downloads

And another site



Weather Underground History page Text

Daily Summary for June 4, 2017 Units:  Metric    English   Both
« Previous Day
Next Day »
Daily Weekly Monthly Yearly Custom
  High: Low: Average:
Temperature: -17.8 °C -12.4 °C -9.1 °C
Dew Point: -17.8 °C -12.9 °C -11.8 °C
Humidity: Humidity % 49 % 74 %
Wind Speed: 0 km/h 0 km/h 3.4 km/h
Wind Gust: 0 km/h - -
Wind:- - WSW
Pressure: 0 hPa 34462.7 hPa -
Precipitation: 33.02 mm    
Historical Graphs
 
 
Tabular Data for June 4, 2017
Time Temperature Dew Point Pressure Wind Wind Speed Wind Gust Humidity Rainfall Rate (Hourly)
-17.8 °C -17.8 °C 0 hPa Calm     Humidity % 0 mm
00:02 -9.9 °C -10.3 °C 34476.3 hPa NW 10.3 km/h 23.3 km/h 95 % 25.4 mm
00:07 -10 °C -10.4 °C 34476.3 hPa NW 10.3 km/h 23.3 km/h 95 % 38.1 mm
00:12 -10.1 °C -10.5 °C 34476.3 hPa NNW 7.7 km/h 20.8 km/h 95 % 45.72 mm
00:17 -10.1 °C -10.5 °C 34476.3 hPa NNW 7.7 km/h 20.8 km/h 95 % 50.8 mm
00:22 -10.1 °C -10.5 °C 34486.4 hPa Calm   18.2 km/h 95 % 50.8 mm
00:32 -10.2 °C -10.6 °C 34476.3 hPa NNW 10.3 km/h 15.6 km/h 95 % 45.72 mm
00:42 -10.2 °C -10.6 °C 34486.4 hPa NNW 2.6 km/h 15.6 km/h 95 % 50.8 mm
00:47 -10.2 °C -10.7 °C 34486.4 hPa NNW 7.7 km/h 15.6 km/h 95 % 50.8 mm
00:52 -10.2 °C -10.7 °C 34476.3 hPa NNE 7.7 km/h 15.6 km/h 95 % 45.72 mm
00:57 -10.3 °C -10.8 °C 34486.4 hPa North 10.3 km/h 15.6 km/h 94 % 38.1 mm
01:02 -10.3 °C -10.8 °C 34486.4 hPa NNW 12.9 km/h 18.2 km/h 94 % 25.4 mm
01:07 -10.3 °C -10.8 °C 34486.4 hPa NNW 7.7 km/h 18.2 km/h 94 % 20.32 mm
01:12 -10.4 °C -10.9 °C 34486.4 hPa NNW 5.1 km/h 18.2 km/h 94 % 12.7 mm
01:17 -10.4 °C -10.9 °C 34486.4 hPa North 7.7 km/h 18.2 km/h 94 % 7.62 mm
01:22 -10.4 °C -10.9 °C 34486.4 hPa NNW 5.1 km/h 15.6 km/h 94 % 7.62 mm
01:27 -10.4 °C -10.9 °C 34496.6 hPa NW 2.6 km/h 15.6 km/h 94 % 7.62 mm
01:32 -10.4 °C -10.9 °C 34496.6 hPa NW 5.1 km/h 15.6 km/h 94 % 0 mm
01:37 -10.4 °C -10.9 °C 34496.6 hPa NW 7.7 km/h 15.6 km/h 94 % 0 mm
01:42 -10.4 °C -10.9 °C 34496.6 hPa WNW 2.6 km/h 15.6 km/h 94 % 0 mm
01:47 -10.4 °C -10.9 °C 34496.6 hPa WNW 12.9 km/h 15.6 km/h 94 % 0 mm
01:52 -10.4 °C -10.9 °C 34496.6 hPa NW 7.7 km/h 20.8 km/h 94 % 0 mm
01:57 -10.4 °C -10.9 °C 34496.6 hPa NNW 5.1 km/h 20.8 km/h 94 % 0 mm
02:02 -10.4 °C -10.9 °C 34496.6 hPa North 2.6 km/h 20.8 km/h 94 % 0 mm
02:07 -10.4 °C -10.9 °C 34496.6 hPa Calm   12.9 km/h 94 % 0 mm
02:12 -10.4 °C -10.9 °C 34496.6 hPa NW 5.1 km/h 12.9 km/h 94 % 0 mm
02:22 -10.4 °C -10.9 °C 34496.6 hPa NW 2.6 km/h 12.9 km/h 94 % 0 mm
02:27 -10.4 °C -10.9 °C 34496.6 hPa Calm   12.9 km/h 94 % 0 mm
02:32 -10.4 °C -10.9 °C 34510.1 hPa Calm   12.9 km/h 94 % 0 mm
02:37 -10.5 °C -11 °C 34510.1 hPa NNW 5.1 km/h 15.6 km/h 94 % 0 mm
02:42 -10.5 °C -11 °C 34510.1 hPa WNW 7.7 km/h 15.6 km/h 94 % 0 mm
02:47 -10.5 °C -11 °C 34510.1 hPa Calm   15.6 km/h 94 % 0 mm
02:52 -10.5 °C -11 °C 34510.1 hPa WNW 5.1 km/h 10.3 km/h 94 % 0 mm
02:57 -10.5 °C -11 °C 34510.1 hPa WNW 2.6 km/h 12.9 km/h 94 % 0 mm
03:02 -10.6 °C -11.1 °C 34520.3 hPa West 7.7 km/h 12.9 km/h 94 % 0 mm
03:07 -10.6 °C -11.1 °C 34520.3 hPa West 2.6 km/h 15.6 km/h 94 % 0 mm
03:12 -10.6 °C -11.1 °C 34510.1 hPa WNW 2.6 km/h 15.6 km/h 94 % 0 mm
03:17 -10.6 °C -11.1 °C 34520.3 hPa Calm   15.6 km/h 94 % 0 mm
03:22 -10.6 °C -11.1 °C 34520.3 hPa WNW 2.6 km/h 5.1 km/h 95 % 0 mm
03:27 -10.6 °C -11.1 °C 34520.3 hPa WNW 2.6 km/h 7.7 km/h 95 % 0 mm
03:32 -10.7 °C -11.1 °C 34520.3 hPa Calm   7.7 km/h 95 % 0 mm
03:42 -10.7 °C -11.2 °C 34520.3 hPa NW 2.6 km/h 10.3 km/h 95 % 0 mm
03:47 -10.8 °C -11.3 °C 34520.3 hPa WNW 7.7 km/h 10.3 km/h 94 % 0 mm
03:52 -10.9 °C -11.4 °C 34520.3 hPa WNW 2.6 km/h 10.3 km/h 94 % 0 mm
03:57 -10.9 °C -11.4 °C 34520.3 hPa NW 5.1 km/h 10.3 km/h 94 % 0 mm
04:02 -11 °C -11.5 °C 34520.3 hPa WNW 5.1 km/h 10.3 km/h 94 % 0 mm
04:07 -11 °C -11.5 °C 34520.3 hPa West 2.6 km/h 10.3 km/h 94 % 0 mm
04:12 -11.1 °C -11.6 °C 34533.8 hPa WNW 2.6 km/h 10.3 km/h 94 % 0 mm
04:17 -11.1 °C -11.6 °C 34520.3 hPa NW 5.1 km/h 10.3 km/h 94 % 0 mm
04:22 -11.1 °C -11.6 °C 34520.3 hPa West 2.6 km/h 7.7 km/h 94 % 0 mm
04:32 -11.2 °C -11.7 °C 34520.3 hPa NW 2.6 km/h 7.7 km/h 94 % 0 mm
04:37 -11.3 °C -11.8 °C 34533.8 hPa Calm   7.7 km/h 94 % 0 mm
04:42 -11.4 °C -11.9 °C 34533.8 hPa NNW 2.6 km/h 7.7 km/h 94 % 0 mm
04:47 -11.4 °C -11.9 °C 34533.8 hPa NNW 2.6 km/h 7.7 km/h 94 % 0 mm
04:52 -11.5 °C -12 °C 34533.8 hPa NNW 5.1 km/h 5.1 km/h 94 % 0 mm
04:57 -11.6 °C -12.1 °C 34533.8 hPa North 2.6 km/h 7.7 km/h 94 % 0 mm
05:02 -11.6 °C -12.1 °C 34533.8 hPa NNW 2.6 km/h 7.7 km/h 94 % 0 mm
05:12 -11.6 °C -12.1 °C 34533.8 hPa Calm   5.1 km/h 94 % 0 mm
05:17 -11.6 °C -12.1 °C 34533.8 hPa Calm   5.1 km/h 94 % 0 mm
05:22 -11.6 °C -12.1 °C 34533.8 hPa Calm     94 % 0 mm
05:32 -11.8 °C -12.3 °C 34533.8 hPa Calm     94 % 0 mm
05:42 -12.1 °C -12.6 °C 34533.8 hPa Calm     94 % 0 mm
05:52 -12.1 °C -12.5 °C 34544 hPa Calm     95 % 0 mm
06:02 -12.3 °C -12.7 °C 34544 hPa Calm     95 % 0 mm
06:17 -12.4 °C -12.8 °C 34554.1 hPa Calm     95 % 0 mm
06:22 -12.4 °C -12.7 °C 34554.1 hPa Calm     96 % 0 mm
06:27 -12.4 °C -12.7 °C 34554.1 hPa Calm     96 % 0 mm
06:32 -12.4 °C -12.7 °C 34554.1 hPa Calm     96 % 0 mm
06:42 -12.3 °C -12.7 °C 34567.7 hPa Calm     96 % 0 mm
06:47 -12.3 °C -12.7 °C 34567.7 hPa Calm     96 % 0 mm
06:57 -12.2 °C -12.7 °C 34567.7 hPa Calm     95 % 0 mm
07:02 -12.2 °C -12.6 °C 34567.7 hPa Calm     95 % 0 mm
07:12 -12 °C -12.4 °C 34567.7 hPa Calm     95 % 0 mm
07:17 -11.8 °C -12.2 °C 34567.7 hPa Calm     95 % 0 mm
07:22 -11.3 °C -11.7 °C 34577.8 hPa Calm     96 % 0 mm
07:32 -11.1 °C -11.7 °C 34577.8 hPa Calm     93 % 0 mm
07:42 -10.7 °C -11.4 °C 34577.8 hPa Calm     92 % 0 mm
07:52 -10.3 °C -11.2 °C 34591.4 hPa Calm     90 % 0 mm
07:57 -10.5 °C -11.5 °C 34591.4 hPa Calm     89 % 0 mm
08:02 -10.6 °C -11.6 °C 34591.4 hPa Calm   2.6 km/h 89 % 0 mm
08:12 -10.4 °C -11.4 °C 34591.4 hPa Calm   5.1 km/h 89 % 0 mm
08:17 -10.4 °C -11.4 °C 34591.4 hPa Calm   5.1 km/h 89 % 0 mm
08:22 -10.3 °C -11.4 °C 34601.5 hPa Calm   5.1 km/h 88 % 0 mm
08:27 -10.3 °C -11.3 °C 34601.5 hPa Calm   5.1 km/h 89 % 0 mm
08:32 -10.2 °C -11.2 °C 34601.5 hPa Calm   2.6 km/h 89 % 0 mm
08:37 -10.2 °C -11.2 °C 34601.5 hPa Calm     89 % 0 mm
08:42 -10.2 °C -11.3 °C 34591.4 hPa Calm     88 % 0 mm
08:47 -10.2 °C -11.3 °C 34591.4 hPa Calm     88 % 0 mm
08:52 -10.1 °C -11.2 °C 34591.4 hPa Calm     88 % 0 mm
08:57 -10.1 °C -11.3 °C 34591.4 hPa East 2.6 km/h   86 % 0 mm
09:02 -10.1 °C -11.4 °C 34591.4 hPa ENE 5.1 km/h 5.1 km/h 86 % 0 mm
09:12 -10.1 °C -11.6 °C 34577.8 hPa ENE 5.1 km/h 5.1 km/h 83 % 0 mm
09:17 -9.9 °C -11.3 °C 34577.8 hPa Calm   7.7 km/h 85 % 0 mm
09:22 -9.8 °C -11.6 °C 34577.8 hPa North 5.1 km/h 7.7 km/h 81 % 0 mm
09:32 -9.7 °C -11.4 °C 34591.4 hPa Calm   10.3 km/h 81 % 0 mm
09:37 -9.2 °C -11.1 °C 34591.4 hPa Calm   10.3 km/h 80 % 0 mm
09:42 -8.9 °C -11.2 °C 34591.4 hPa Calm   10.3 km/h 77 % 0 mm
09:47 -9 °C -11.4 °C 34577.8 hPa Calm   10.3 km/h 75 % 0 mm
09:52 -9.1 °C -11.7 °C 34577.8 hPa Calm   10.3 km/h 74 % 0 mm
09:57 -9.1 °C -11.9 °C 34577.8 hPa North 5.1 km/h 10.3 km/h 72 % 0 mm
10:02 -9.1 °C -11.7 °C 34577.8 hPa NNE 5.1 km/h 15.6 km/h 74 % 0 mm
10:07 -8.9 °C -12 °C 34577.8 hPa NNE 12.9 km/h 15.6 km/h 70 % 0 mm
10:12 -9 °C -12.4 °C 34577.8 hPa WNW 5.1 km/h 18.2 km/h 67 % 0 mm
10:17 -9 °C -12.1 °C 34591.4 hPa North 2.6 km/h 18.2 km/h 70 % 0 mm
10:27 -8.9 °C -12.6 °C 34591.4 hPa NNE 5.1 km/h 20.8 km/h 65 % 0 mm
10:32 -8.9 °C -12.4 °C 34591.4 hPa NE 7.7 km/h 20.8 km/h 66 % 0 mm
10:37 -8.9 °C -12.2 °C 34591.4 hPa Calm   18.2 km/h 68 % 0 mm
10:42 -8.8 °C -12.2 °C 34591.4 hPa West 2.6 km/h 18.2 km/h 67 % 0 mm
10:47 -8.7 °C -12.1 °C 34591.4 hPa West 15.6 km/h 15.6 km/h 67 % 0 mm
10:52 -8.7 °C -12.1 °C 34591.4 hPa NE 10.3 km/h 15.6 km/h 67 % 0 mm
10:57 -8.7 °C -12.7 °C 34591.4 hPa NNW 7.7 km/h 15.6 km/h 63 % 0 mm
11:02 -8.7 °C -12.5 °C 34577.8 hPa West 7.7 km/h 18.2 km/h 64 % 0 mm
11:07 -8.6 °C -12.6 °C 34577.8 hPa NNE 5.1 km/h 18.2 km/h 63 % 0 mm
11:12 -8.6 °C -12.6 °C 34577.8 hPa NNW 5.1 km/h 18.2 km/h 63 % 0 mm
11:17 -8.6 °C -12.1 °C 34577.8 hPa North 10.3 km/h 18.2 km/h 66 % 0 mm
11:22 -8.5 °C -12.1 °C 34577.8 hPa NNW 7.7 km/h 23.3 km/h 66 % 0 mm
11:32 -8.4 °C -12.2 °C 34577.8 hPa West 2.6 km/h 18.2 km/h 64 % 0 mm
11:37 -8.2 °C -12.1 °C 34577.8 hPa NE 5.1 km/h 12.9 km/h 64 % 0 mm
11:42 -8.2 °C -12 °C 34577.8 hPa WNW 10.3 km/h 15.6 km/h 64 % 0 mm
11:47 -8.1 °C -12.4 °C 34577.8 hPa SW 5.1 km/h 15.6 km/h 60 % 0 mm
11:52 -8.1 °C -12 °C 34577.8 hPa WNW 5.1 km/h 15.6 km/h 63 % 0 mm
11:57 -7.7 °C -11.6 °C 34577.8 hPa NNE 10.3 km/h 12.9 km/h 64 % 0 mm
12:02 -7.9 °C -12.1 °C 34577.8 hPa NNW 5.1 km/h 18.2 km/h 62 % 0 mm
12:07 -8.2 °C -12.3 °C 34577.8 hPa North 2.6 km/h 18.2 km/h 62 % 0 mm
12:12 -8.2 °C -12.3 °C 34577.8 hPa Calm   18.2 km/h 62 % 0 mm
12:17 -8.3 °C -12.2 °C 34577.8 hPa NNW 5.1 km/h 18.2 km/h 63 % 0 mm
12:22 -8.3 °C -12.2 °C 34577.8 hPa WNW 5.1 km/h 18.2 km/h 63 % 0 mm
12:32 -7.9 °C -11.8 °C 34577.8 hPa NNW 18.2 km/h 18.2 km/h 64 % 0 mm
12:37 -8 °C -12.2 °C 34577.8 hPa West 2.6 km/h 18.2 km/h 61 % 0 mm
12:42 -8.2 °C -12.3 °C 34577.8 hPa NW 7.7 km/h 18.2 km/h 62 % 0 mm
12:47 -7.9 °C -11.4 °C 34577.8 hPa NNE 15.6 km/h 18.2 km/h 66 % 0 mm
12:52 -7.9 °C -12.1 °C 34577.8 hPa West 5.1 km/h 18.2 km/h 62 % 0 mm
12:57 -7.9 °C -12.1 °C 34567.7 hPa West 5.1 km/h 15.6 km/h 62 % 0 mm
13:02 -7.9 °C -12.2 °C 34567.7 hPa North 5.1 km/h 15.6 km/h 61 % 0 mm
13:07 -8 °C -12.2 °C 34567.7 hPa NW 10.3 km/h 18.2 km/h 61 % 0 mm
13:12 -8.1 °C -12.3 °C 34567.7 hPa West 7.7 km/h 20.8 km/h 61 % 0 mm
13:17 -7.9 °C -11.8 °C 34567.7 hPa West 10.3 km/h 20.8 km/h 64 % 0 mm
13:22 -7.8 °C -12.1 °C 34567.7 hPa WNW 2.6 km/h 20.8 km/h 61 % 0 mm
13:27 -7.8 °C -12.1 °C 34567.7 hPa WNW 2.6 km/h 20.8 km/h 61 % 0 mm
13:32 -7.7 °C -12.1 °C 34567.7 hPa NNW 2.6 km/h 15.6 km/h 60 % 0 mm
13:37 -7.6 °C -12 °C 34567.7 hPa Calm   15.6 km/h 60 % 0 mm
13:42 -7.6 °C -12.1 °C 34567.7 hPa North 5.1 km/h 15.6 km/h 59 % 0 mm
13:47 -7.6 °C -11.8 °C 34567.7 hPa NNW 5.1 km/h 15.6 km/h 61 % 0 mm
13:52 -7.6 °C -11.7 °C 34554.1 hPa WNW 7.7 km/h 12.9 km/h 62 % 0 mm
13:57 -7.4 °C -12.1 °C 34554.1 hPa NW 5.1 km/h 12.9 km/h 58 % 0 mm
14:02 -7.4 °C -11.7 °C 34554.1 hPa NW 10.3 km/h 12.9 km/h 61 % 0 mm
14:07 -7.6 °C -12.4 °C 34554.1 hPa NNE 2.6 km/h 15.6 km/h 57 % 0 mm
14:12 -7.6 °C -12.2 °C 34554.1 hPa Calm   15.6 km/h 58 % 0 mm
14:17 -7.6 °C -12.7 °C 34554.1 hPa NW 12.9 km/h 18.2 km/h 55 % 0 mm
14:22 -7.6 °C -12.5 °C 34554.1 hPa Calm   18.2 km/h 56 % 0 mm
14:27 -7.3 °C -11.9 °C 34544 hPa NW 5.1 km/h 18.2 km/h 59 % 0 mm
14:37 -7.4 °C -12.2 °C 34544 hPa ENE 5.1 km/h 12.9 km/h 57 % 0 mm
14:42 -7.4 °C -12 °C 34544 hPa West 2.6 km/h 10.3 km/h 59 % 0 mm
14:47 -7.6 °C -12.1 °C 34544 hPa WNW 5.1 km/h 12.9 km/h 59 % 0 mm
14:52 -7.5 °C -12.2 °C 34544 hPa SW 2.6 km/h 12.9 km/h 58 % 0 mm
14:57 -7.3 °C -12.3 °C 34533.8 hPa Calm   12.9 km/h 56 % 0 mm
15:02 -7.1 °C -12.4 °C 34544 hPa WNW 12.9 km/h 12.9 km/h 54 % 0 mm
15:07 -7.3 °C -12.4 °C 34544 hPa West 10.3 km/h 15.6 km/h 55 % 0 mm
15:12 -7.3 °C -12.4 °C 34544 hPa West 7.7 km/h 15.6 km/h 55 % 0 mm
15:17 -7.3 °C -12.3 °C 34544 hPa SW 7.7 km/h 18.2 km/h 56 % 0 mm
15:22 -7.2 °C -12.3 °C 34544 hPa WNW 2.6 km/h 18.2 km/h 55 % 0 mm
15:27 -7.2 °C -12.3 °C 34544 hPa NNW 2.6 km/h 18.2 km/h 55 % 0 mm
15:32 -7.2 °C -12.5 °C 34533.8 hPa West 5.1 km/h 12.9 km/h 54 % 0 mm
15:37 -7.2 °C -12.2 °C 34533.8 hPa West 7.7 km/h 12.9 km/h 56 % 0 mm
15:42 -7.3 °C -12.2 °C 34533.8 hPa West 5.1 km/h 12.9 km/h 57 % 0 mm
15:47 -7.4 °C -12.4 °C 34533.8 hPa West 7.7 km/h 12.9 km/h 56 % 0 mm
15:52 -7.4 °C -12.4 °C 34533.8 hPa West 5.1 km/h 10.3 km/h 56 % 0 mm
15:57 -7.3 °C -12.6 °C 34533.8 hPa WSW 7.7 km/h 10.3 km/h 54 % 0 mm
16:02 -7.3 °C -12.6 °C 34533.8 hPa Calm   10.3 km/h 54 % 0 mm
16:07 -6.9 °C -12.4 °C 34533.8 hPa West 5.1 km/h 10.3 km/h 53 % 0 mm
16:12 -6.9 °C -12.6 °C 34533.8 hPa Calm   15.6 km/h 52 % 0 mm
16:17 -7 °C -12.6 °C 34533.8 hPa Calm   15.6 km/h 52 % 0 mm
16:22 -6.8 °C -12.4 °C 34533.8 hPa WNW 10.3 km/h 15.6 km/h 52 % 0 mm
16:27 -6.8 °C -12.4 °C 34520.3 hPa Calm   12.9 km/h 52 % 0 mm
16:32 -6.8 °C -12.7 °C 34520.3 hPa West 10.3 km/h 10.3 km/h 50 % 0 mm
16:37 -7 °C -12.9 °C 34520.3 hPa WSW 5.1 km/h 18.2 km/h 50 % 0 mm
16:42 -6.9 °C -12.9 °C 34520.3 hPa Calm   18.2 km/h 50 % 0 mm
16:47 -6.9 °C -12.8 °C 34520.3 hPa NE 2.6 km/h 15.6 km/h 50 % 0 mm
16:52 -7.1 °C -12.2 °C 34510.1 hPa Calm   12.9 km/h 55 % 0 mm
16:57 -6.9 °C -11.7 °C 34510.1 hPa Calm   12.9 km/h 58 % 0 mm
17:02 -6.9 °C -12.1 °C 34510.1 hPa Calm   10.3 km/h 55 % 0 mm
17:07 -6.8 °C -12.4 °C 34510.1 hPa Calm   7.7 km/h 52 % 0 mm
17:12 -6.7 °C -12.3 °C 34510.1 hPa WNW 2.6 km/h 10.3 km/h 52 % 0 mm
17:17 -6.8 °C -12.4 °C 34510.1 hPa NNW 2.6 km/h 10.3 km/h 52 % 0 mm
17:22 -7 °C -12.4 °C 34510.1 hPa Calm   10.3 km/h 53 % 0 mm
17:27 -6.8 °C -12.3 °C 34510.1 hPa WNW 2.6 km/h 7.7 km/h 53 % 0 mm
17:32 -6.8 °C -12.1 °C 34496.6 hPa Calm   7.7 km/h 54 % 0 mm
17:37 -6.6 °C -11.7 °C 34496.6 hPa East 5.1 km/h 7.7 km/h 56 % 0 mm
17:42 -6.8 °C -11.9 °C 34496.6 hPa NNE 10.3 km/h 10.3 km/h 55 % 0 mm
17:47 -6.8 °C -12 °C 34496.6 hPa NNE 7.7 km/h 10.3 km/h 55 % 0 mm
17:52 -7.1 °C -12.2 °C 34496.6 hPa ENE 2.6 km/h 12.9 km/h 55 % 0 mm
17:57 -7.1 °C -12.3 °C 34496.6 hPa Calm   12.9 km/h 55 % 0 mm
18:02 -7.1 °C -11.9 °C 34496.6 hPa East 2.6 km/h 12.9 km/h 57 % 0 mm
18:07 -6.8 °C -11.8 °C 34496.6 hPa NE 5.1 km/h 7.7 km/h 56 % 0 mm
18:12 -7 °C -12.3 °C 34496.6 hPa ENE 12.9 km/h 15.6 km/h 54 % 0 mm
18:17 -6.9 °C -11.9 °C 34496.6 hPa NE 5.1 km/h 15.6 km/h 56 % 0 mm
18:22 -7 °C -12.3 °C 34496.6 hPa NNE 5.1 km/h 15.6 km/h 54 % 0 mm
18:32 -6.8 °C -12.3 °C 34496.6 hPa WNW 7.7 km/h 12.9 km/h 53 % 0 mm
18:42 -6.8 °C -12.1 °C 34496.6 hPa WNW 10.3 km/h 18.2 km/h 54 % 0 mm
18:47 -6.9 °C -12.3 °C 34496.6 hPa WNW 7.7 km/h 20.8 km/h 53 % 0 mm
18:52 -6.8 °C -12.3 °C 34496.6 hPa WNW 10.3 km/h 20.8 km/h 53 % 0 mm
18:57 -6.7 °C -12.3 °C 34486.4 hPa Calm   18.2 km/h 52 % 0 mm
19:02 -6.7 °C -12.5 °C 34486.4 hPa WSW 7.7 km/h 18.2 km/h 51 % 0 mm
19:12 -6.5 °C -12.2 °C 34486.4 hPa NW 2.6 km/h 15.6 km/h 52 % 0 mm
19:17 -6.4 °C -12.4 °C 34486.4 hPa North 2.6 km/h 15.6 km/h 50 % 0 mm
19:22 -6.6 °C -12.6 °C 34486.4 hPa NNW 2.6 km/h 15.6 km/h 50 % 0 mm
19:27 -6.5 °C -12.2 °C 34486.4 hPa North 2.6 km/h 12.9 km/h 52 % 0 mm
19:32 -6.6 °C -12.7 °C 34486.4 hPa Calm   12.9 km/h 49 % 0 mm
19:37 -6.6 °C -12.6 °C 34486.4 hPa WNW 2.6 km/h 7.7 km/h 50 % 0 mm
19:42 -6.7 °C -12 °C 34486.4 hPa Calm   7.7 km/h 54 % 0 mm
19:47 -6.8 °C -12.3 °C 34486.4 hPa North 2.6 km/h 10.3 km/h 53 % 0 mm
19:52 -6.8 °C -12 °C 34486.4 hPa WNW 5.1 km/h 10.3 km/h 55 % 0 mm
19:57 -6.9 °C -11.9 °C 34486.4 hPa Calm   10.3 km/h 56 % 0 mm
20:02 -6.9 °C -11.9 °C 34476.3 hPa Calm   7.7 km/h 56 % 0 mm
20:07 -7 °C -12.3 °C 34476.3 hPa Calm   7.7 km/h 54 % 0 mm
20:12 -7 °C -12 °C 34476.3 hPa Calm   7.7 km/h 56 % 0 mm
20:17 -7.1 °C -11.9 °C 34476.3 hPa NW 2.6 km/h 5.1 km/h 57 % 0 mm
20:22 -7.2 °C -11.8 °C 34476.3 hPa WNW 2.6 km/h 5.1 km/h 59 % 0 mm
20:27 -7.2 °C -11.8 °C 34476.3 hPa Calm   5.1 km/h 59 % 0 mm
20:32 -7.2 °C -11.5 °C 34476.3 hPa NE 2.6 km/h 5.1 km/h 61 % 0 mm
20:42 -7.6 °C -11.9 °C 34476.3 hPa Calm   2.6 km/h 60 % 0 mm
20:47 -7.5 °C -11.8 °C 34476.3 hPa Calm   2.6 km/h 61 % 0 mm
20:52 -7.4 °C -11.7 °C 34476.3 hPa Calm     61 % 0 mm
21:02 -7.4 °C -11.7 °C 34476.3 hPa Calm     61 % 0 mm
21:07 -7.2 °C -10.9 °C 34476.3 hPa Calm     65 % 0 mm
21:12 -7.3 °C -11.6 °C 34476.3 hPa Calm     61 % 0 mm
21:17 -7.6 °C -11.7 °C 34476.3 hPa Calm     62 % 0 mm
21:22 -7.9 °C -11.8 °C 34476.3 hPa Calm     63 % 0 mm
21:27 -8.1 °C -11.5 °C 34476.3 hPa Calm     67 % 0 mm
21:37 -8.7 °C -11.6 °C 34476.3 hPa Calm     71 % 0 mm
21:42 -8.8 °C -11.6 °C 34462.7 hPa Calm     72 % 0 mm
21:47 -8.9 °C -11.7 °C 34462.7 hPa Calm     72 % 0 mm
21:52 -9.1 °C -11.7 °C 34476.3 hPa Calm     73 % 0 mm
21:57 -9.2 °C -11.7 °C 34476.3 hPa Calm     74 % 0 mm
22:02 -9.3 °C -11.7 °C 34476.3 hPa Calm     75 % 0 mm
22:12 -9.5 °C -11.8 °C 34486.4 hPa Calm     76 % 0 mm
22:17 -9.6 °C -11.8 °C 34486.4 hPa Calm     77 % 0 mm
22:22 -9.6 °C -11.7 °C 34486.4 hPa Calm     78 % 0 mm
22:27 -9.7 °C -11.7 °C 34486.4 hPa Calm     79 % 0 mm
22:32 -9.7 °C -11.7 °C 34486.4 hPa Calm     79 % 0 mm
22:37 -9.8 °C -11.8 °C 34486.4 hPa Calm     79 % 0 mm
22:42 -9.9 °C -11.7 °C 34496.6 hPa Calm     81 % 0 mm
22:47 -10 °C -11.7 °C 34496.6 hPa Calm     82 % 0 mm
22:52 -10.2 °C -11.7 °C 34496.6 hPa Calm     83 % 0 mm
22:57 -10.2 °C -11.7 °C 34496.6 hPa Calm     84 % 0 mm
23:02 -10.2 °C -11.7 °C 34496.6 hPa Calm     84 % 0 mm
23:07 -10.3 °C -11.8 °C 34496.6 hPa Calm     83 % 0 mm
23:12 -10.3 °C -11.9 °C 34496.6 hPa Calm     83 % 0 mm
23:17 -10.4 °C -11.8 °C 34496.6 hPa Calm     84 % 0 mm
23:22 -10.5 °C -11.9 °C 34496.6 hPa Calm     85 % 0 mm
23:27 -10.7 °C -11.9 °C 34496.6 hPa Calm     86 % 0 mm
23:32 -10.7 °C -12 °C 34496.6 hPa Calm     86 % 0 mm
23:37 -10.8 °C -11.9 °C 34496.6 hPa Calm     87 % 0 mm
23:42 -10.8 °C -12 °C 34496.6 hPa Calm     87 % 0 mm
23:47 -10.9 °C -12.1 °C 34496.6 hPa Calm     87 % 0 mm
23:57 -11.1 °C -12.1 °C 34486.4 hPa Calm     88 % 0 mm
Meteo18
Compliments of Weather Underground - 4 mb

Script developed by  Jim McMurry - jmcmurry@mwt.net Adapted for the template by  Wim van der Kuil - Leuven-Template.eu

You find our weather info also at:

European Weather Network

Weather Underground

Equipment we use:

Weather-station
Davis Vue

Weather-program
Meteobridge

Weather-server
Raspberry PI 2 B+

Provider
1 and 1

Davis Vue

Meteobridge

Raspberry PI 2 B+

1 and 1